Time,TemperatureF,DewpointF,PressureIn,WindDirection,WindDirectionDegrees,WindSpeedMPH,WindSpeedGustMPH,Humidity,HourlyPrecipIn,Conditions,Clouds,dailyrainin,SoftwareType,DateUTC
2013-04-14 00:00:00,30.7,19.6,29.88,SSE,152,3.6,3.6,63,0.00,,---,0.00,VWS V14.01,2013-04-14 06:00:00,
2013-04-14 00:05:00,30.6,19.5,29.88,SSE,158,7.6,7.6,63,0.00,,---,0.00,VWS V14.01,2013-04-14 06:05:00,
2013-04-14 00:10:00,30.6,19.5,29.88,SE,142,4.9,7.6,63,0.00,,---,0.00,VWS V14.01,2013-04-14 06:10:00,
2013-04-14 00:15:00,30.6,19.9,29.88,SE,136,5.4,5.4,64,0.00,,---,0.00,VWS V14.01,2013-04-14 06:15:00,
2013-04-14 00:20:00,30.6,19.9,29.88,SE,128,7.6,7.6,64,0.00,,---,0.00,VWS V14.01,2013-04-14 06:20:00,
2013-04-14 00:25:00,30.7,20.0,29.88,SSE,163,8.1,8.1,64,0.00,,---,0.00,VWS V14.01,2013-04-14 06:25:00,
2013-04-14 00:30:00,30.7,20.4,29.88,SSE,159,5.8,5.8,65,0.00,,---,0.00,VWS V14.01,2013-04-14 06:30:00,
2013-04-14 00:35:00,30.7,20.4,29.88,SE,132,3.1,8.1,65,0.00,,---,0.00,VWS V14.01,2013-04-14 06:35:00,
2013-04-14 00:40:00,30.7,20.4,29.88,SSE,164,5.8,8.1,65,0.00,,---,0.00,VWS V14.01,2013-04-14 06:40:00,
2013-04-14 00:45:00,30.6,20.2,29.88,SSE,167,3.1,5.8,65,0.00,,---,0.00,VWS V14.01,2013-04-14 06:45:00,
2013-04-14 00:50:00,30.4,20.0,29.88,South,177,3.1,6.7,65,0.00,,---,0.00,VWS V14.01,2013-04-14 06:50:00,
2013-04-14 00:55:00,30.2,20.2,29.88,South,185,4.0,7.6,66,0.00,,---,0.00,VWS V14.01,2013-04-14 06:55:00,
2013-04-14 01:00:00,30.2,20.6,29.88,South,170,5.8,5.8,67,0.00,,---,0.00,VWS V14.01,2013-04-14 07:00:00,
2013-04-14 01:05:00,30.2,20.6,29.88,ESE,110,3.1,5.8,67,0.00,,---,0.00,VWS V14.01,2013-04-14 07:05:00,
2013-04-14 01:10:00,30.2,20.6,29.88,SSE,149,0.0,5.8,67,0.00,,---,0.00,VWS V14.01,2013-04-14 07:10:00,
2013-04-14 01:15:00,30.2,20.6,29.88,SE,140,5.4,5.4,67,0.00,,---,0.00,VWS V14.01,2013-04-14 07:15:00,
2013-04-14 01:20:00,30.4,20.8,29.88,South,181,6.3,7.6,67,0.00,,---,0.00,VWS V14.01,2013-04-14 07:20:00,
2013-04-14 01:25:00,30.6,20.9,29.88,SE,137,4.9,9.6,67,0.00,,---,0.00,VWS V14.01,2013-04-14 07:25:00,
2013-04-14 01:30:00,30.6,20.9,29.88,SE,145,6.7,8.1,67,0.00,,---,0.00,VWS V14.01,2013-04-14 07:30:00,
2013-04-14 01:35:00,30.6,20.9,29.88,SSE,159,4.9,10.5,67,0.00,,---,0.00,VWS V14.01,2013-04-14 07:35:00,
2013-04-14 01:40:00,30.6,20.9,29.88,ESE,108,3.1,10.5,67,0.00,,---,0.00,VWS V14.01,2013-04-14 07:40:00,
2013-04-14 01:45:00,30.6,20.9,29.91,SSW,199,5.8,5.8,67,0.00,,---,0.00,VWS V14.01,2013-04-14 07:45:00,
2013-04-14 01:50:00,30.6,21.3,29.91,South,170,3.6,7.6,68,0.00,,---,0.00,VWS V14.01,2013-04-14 07:50:00,
2013-04-14 01:55:00,30.6,21.3,29.91,SSE,159,3.6,7.6,68,0.00,,---,0.00,VWS V14.01,2013-04-14 07:55:00,
2013-04-14 02:00:00,30.6,21.3,29.91,ESE,120,2.7,2.7,68,0.00,,---,0.00,VWS V14.01,2013-04-14 08:00:00,
2013-04-14 02:05:00,30.6,21.3,29.91,SSE,154,0.0,4.9,68,0.00,,---,0.00,VWS V14.01,2013-04-14 08:05:00,
2013-04-14 02:10:00,30.6,21.3,29.91,SSE,153,4.0,5.4,68,0.00,,---,0.00,VWS V14.01,2013-04-14 08:10:00,
2013-04-14 02:15:00,30.7,21.8,29.91,ESE,119,0.0,3.6,69,0.00,,---,0.00,VWS V14.01,2013-04-14 08:15:00,
2013-04-14 02:20:00,30.7,21.4,29.91,SSE,167,3.1,4.0,68,0.00,,---,0.00,VWS V14.01,2013-04-14 08:20:00,
2013-04-14 02:25:00,30.7,21.4,29.91,SSE,159,0.0,4.0,68,0.00,,---,0.00,VWS V14.01,2013-04-14 08:25:00,
2013-04-14 02:30:00,30.7,21.4,29.91,SSE,159,2.7,2.7,68,0.00,,---,0.00,VWS V14.01,2013-04-14 08:30:00,
2013-04-14 02:35:00,30.6,21.3,29.91,SE,143,2.7,4.9,68,0.00,,---,0.00,VWS V14.01,2013-04-14 08:35:00,
2013-04-14 02:40:00,30.6,21.3,29.91,SE,136,3.1,5.8,68,0.00,,---,0.00,VWS V14.01,2013-04-14 08:40:00,
2013-04-14 02:45:00,30.4,21.1,29.91,South,182,4.0,4.0,68,0.00,,---,0.00,VWS V14.01,2013-04-14 08:45:00,
2013-04-14 02:50:00,30.4,21.1,29.91,SSE,151,3.1,5.4,68,0.00,,---,0.00,VWS V14.01,2013-04-14 08:50:00,
2013-04-14 02:55:00,30.4,21.1,29.91,SE,128,0.0,5.4,68,0.00,,---,0.00,VWS V14.01,2013-04-14 08:55:00,
2013-04-14 03:00:00,30.2,20.9,29.91,ESE,115,0.0,0.0,68,0.00,,---,0.00,VWS V14.01,2013-04-14 09:00:00,
2013-04-14 03:05:00,30.2,20.9,29.91,South,169,3.1,3.6,68,0.00,,---,0.00,VWS V14.01,2013-04-14 09:05:00,
2013-04-14 03:10:00,30.0,20.8,29.91,East,101,3.1,4.0,68,0.00,,---,0.00,VWS V14.01,2013-04-14 09:10:00,
2013-04-14 03:15:00,30.0,20.8,29.91,SE,137,3.1,4.9,68,0.00,,---,0.00,VWS V14.01,2013-04-14 09:15:00,
2013-04-14 03:20:00,30.0,20.8,29.91,SE,140,2.7,6.3,68,0.00,,---,0.00,VWS V14.01,2013-04-14 09:20:00,
2013-04-14 03:26:00,30.2,20.9,29.91,SE,140,0.0,6.3,68,0.00,,---,0.00,VWS V14.01,2013-04-14 09:26:00,
2013-04-14 03:31:00,30.2,20.9,29.91,South,185,2.7,4.0,68,0.00,,---,0.00,VWS V14.01,2013-04-14 09:31:00,
2013-04-14 03:36:00,30.2,20.9,29.91,SE,137,2.2,5.4,68,0.00,,---,0.00,VWS V14.01,2013-04-14 09:36:00,
2013-04-14 03:41:00,30.2,20.9,29.91,SE,126,4.0,5.4,68,0.00,,---,0.00,VWS V14.01,2013-04-14 09:41:00,
2013-04-14 03:46:00,30.4,21.1,29.91,East,97,2.7,3.1,68,0.00,,---,0.00,VWS V14.01,2013-04-14 09:46:00,
2013-04-14 03:51:00,30.4,20.8,29.91,SE,129,0.0,3.6,67,0.00,,---,0.00,VWS V14.01,2013-04-14 09:51:00,
2013-04-14 03:56:00,30.2,20.9,29.91,SE,129,0.0,3.6,68,0.00,,---,0.00,VWS V14.01,2013-04-14 09:56:00,
2013-04-14 04:01:00,30.2,20.9,29.91,ENE,66,0.0,0.0,68,0.00,,---,0.00,VWS V14.01,2013-04-14 10:01:00,
2013-04-14 04:06:00,30.2,20.9,29.91,ENE,66,0.0,0.0,68,0.00,,---,0.00,VWS V14.01,2013-04-14 10:06:00,
2013-04-14 04:11:00,30.2,20.9,29.91,South,178,0.0,0.0,68,0.00,,---,0.00,VWS V14.01,2013-04-14 10:11:00,
2013-04-14 04:16:00,30.2,20.9,29.91,South,186,0.0,0.0,68,0.00,,---,0.00,VWS V14.01,2013-04-14 10:16:00,
2013-04-14 04:21:00,30.0,20.4,29.91,South,186,0.0,0.0,67,0.00,,---,0.00,VWS V14.01,2013-04-14 10:21:00,
2013-04-14 04:26:00,30.0,20.4,29.91,South,186,0.0,0.0,67,0.00,,---,0.00,VWS V14.01,2013-04-14 10:26:00,
2013-04-14 04:31:00,29.8,20.2,29.91,SSW,197,0.0,0.0,67,0.00,,---,0.00,VWS V14.01,2013-04-14 10:31:00,
2013-04-14 04:36:00,29.8,20.6,29.91,ESE,106,3.1,3.6,68,0.00,,---,0.00,VWS V14.01,2013-04-14 10:36:00,
2013-04-14 04:41:00,29.5,19.9,29.91,SE,130,0.0,3.6,67,0.00,,---,0.00,VWS V14.01,2013-04-14 10:41:00,
2013-04-14 04:46:00,29.1,19.5,29.91,SE,126,0.0,2.7,67,0.00,,---,0.00,VWS V14.01,2013-04-14 10:46:00,
2013-04-14 04:51:00,28.8,19.2,29.91,SE,126,0.0,2.7,67,0.00,,---,0.00,VWS V14.01,2013-04-14 10:51:00,
2013-04-14 04:56:00,28.2,18.7,29.91,SE,126,0.0,2.7,67,0.00,,---,0.00,VWS V14.01,2013-04-14 10:56:00,
2013-04-14 05:01:00,27.9,18.3,29.91,SSW,208,0.0,0.0,67,0.00,,---,0.00,VWS V14.01,2013-04-14 11:01:00,
2013-04-14 05:06:00,27.7,18.2,29.91,SSE,153,0.0,0.0,67,0.00,,---,0.00,VWS V14.01,2013-04-14 11:06:00,
2013-04-14 05:11:00,27.5,18.0,29.91,SSE,153,0.0,0.0,67,0.00,,---,0.00,VWS V14.01,2013-04-14 11:11:00,
2013-04-14 05:16:00,27.3,17.8,29.91,WSW,258,0.0,0.0,67,0.00,,---,0.00,VWS V14.01,2013-04-14 11:16:00,
2013-04-14 05:21:00,27.7,18.5,29.91,WNW,282,0.0,0.0,68,0.00,,---,0.00,VWS V14.01,2013-04-14 11:21:00,
2013-04-14 05:26:00,27.3,18.2,29.91,WNW,282,0.0,0.0,68,0.00,,---,0.00,VWS V14.01,2013-04-14 11:26:00,
2013-04-14 05:31:00,27.0,17.5,29.91,WSW,246,0.0,0.0,67,0.00,,---,0.00,VWS V14.01,2013-04-14 11:31:00,
2013-04-14 05:36:00,27.0,17.8,29.91,WNW,299,0.0,0.0,68,0.00,,---,0.00,VWS V14.01,2013-04-14 11:36:00,
2013-04-14 05:41:00,27.3,18.5,29.91,NNW,345,0.0,0.0,69,0.00,,---,0.00,VWS V14.01,2013-04-14 11:41:00,
2013-04-14 05:46:00,27.3,18.5,29.94,NNW,345,0.0,0.0,69,0.00,,---,0.00,VWS V14.01,2013-04-14 11:46:00,
2013-04-14 05:51:00,27.7,19.5,29.94,NNE,27,0.0,0.0,71,0.00,,---,0.00,VWS V14.01,2013-04-14 11:51:00,
2013-04-14 05:56:00,27.9,19.7,29.94,East,85,0.0,0.0,71,0.00,,---,0.00,VWS V14.01,2013-04-14 11:56:00,
2013-04-14 06:01:00,27.9,19.7,29.91,ESE,111,0.0,0.0,71,0.00,,---,0.00,VWS V14.01,2013-04-14 12:01:00,
2013-04-14 06:06:00,27.9,19.4,29.91,ESE,107,2.2,4.0,70,0.00,,---,0.00,VWS V14.01,2013-04-14 12:06:00,
2013-04-14 06:11:00,27.7,19.2,29.91,WSW,240,3.6,4.0,70,0.00,,---,0.00,VWS V14.01,2013-04-14 12:11:00,
2013-04-14 06:16:00,27.7,19.2,29.94,WSW,237,0.0,2.2,70,0.00,,---,0.00,VWS V14.01,2013-04-14 12:16:00,
2013-04-14 06:21:00,27.5,18.7,29.94,WSW,237,0.0,2.2,69,0.00,,---,0.00,VWS V14.01,2013-04-14 12:21:00,
2013-04-14 06:26:00,27.1,18.3,29.94,WSW,237,0.0,2.2,69,0.00,,---,0.00,VWS V14.01,2013-04-14 12:26:00,
2013-04-14 06:31:00,27.0,18.2,29.94,WSW,237,0.0,0.0,69,0.00,,---,0.00,VWS V14.01,2013-04-14 12:31:00,
2013-04-14 06:36:00,26.8,18.0,29.94,WSW,237,0.0,0.0,69,0.00,,---,0.00,VWS V14.01,2013-04-14 12:36:00,
2013-04-14 06:41:00,26.6,17.8,29.94,WSW,237,0.0,0.0,69,0.00,,---,0.00,VWS V14.01,2013-04-14 12:41:00,
2013-04-14 06:46:00,26.4,17.6,29.91,WSW,237,0.0,0.0,69,0.00,,---,0.00,VWS V14.01,2013-04-14 12:46:00,
2013-04-14 06:51:00,26.1,17.3,29.91,WSW,237,0.0,0.0,69,0.00,,---,0.00,VWS V14.01,2013-04-14 12:51:00,
2013-04-14 06:56:00,26.1,17.3,29.91,WSW,237,0.0,0.0,69,0.00,,---,0.00,VWS V14.01,2013-04-14 12:56:00,
2013-04-14 07:01:00,26.1,17.6,29.94,WSW,237,0.0,0.0,70,0.00,,---,0.00,VWS V14.01,2013-04-14 13:01:00,
2013-04-14 07:06:00,26.2,17.8,29.94,WSW,237,0.0,0.0,70,0.00,,---,0.00,VWS V14.01,2013-04-14 13:06:00,
2013-04-14 07:11:00,26.4,18.0,29.94,WSW,237,0.0,0.0,70,0.00,,---,0.00,VWS V14.01,2013-04-14 13:11:00,
2013-04-14 07:16:00,26.6,18.1,29.94,WSW,237,0.0,0.0,70,0.00,,---,0.00,VWS V14.01,2013-04-14 13:16:00,
2013-04-14 07:21:00,26.6,18.1,29.94,WSW,237,0.0,0.0,70,0.00,,---,0.00,VWS V14.01,2013-04-14 13:21:00,
2013-04-14 07:26:00,26.6,18.1,29.94,South,186,2.2,3.1,70,0.00,,---,0.00,VWS V14.01,2013-04-14 13:26:00,
2013-04-14 07:31:00,26.8,18.0,29.94,South,186,0.0,0.0,69,0.00,,---,0.00,VWS V14.01,2013-04-14 13:31:00,
2013-04-14 07:36:00,27.1,18.3,29.94,South,186,0.0,0.0,69,0.00,,---,0.00,VWS V14.01,2013-04-14 13:36:00,
2013-04-14 07:41:00,27.5,19.0,29.94,SE,137,2.7,2.7,70,0.00,,---,0.00,VWS V14.01,2013-04-14 13:41:00,
2013-04-14 07:46:00,27.9,19.4,29.94,SSE,157,3.1,3.1,70,0.00,,---,0.00,VWS V14.01,2013-04-14 13:46:00,
2013-04-14 07:51:00,28.4,19.9,29.94,SSW,202,3.6,4.9,70,0.00,,---,0.00,VWS V14.01,2013-04-14 13:51:00,
2013-04-14 07:56:00,29.1,20.6,29.94,SSE,152,2.7,5.4,70,0.00,,---,0.00,VWS V14.01,2013-04-14 13:56:00,
2013-04-14 08:01:00,29.5,20.9,29.94,SE,145,0.0,2.2,70,0.00,,---,0.00,VWS V14.01,2013-04-14 14:01:00,
2013-04-14 08:06:00,29.7,21.1,29.94,NW,305,2.7,3.6,70,0.00,,---,0.00,VWS V14.01,2013-04-14 14:06:00,
2013-04-14 08:11:00,30.0,21.1,29.94,SSE,148,4.0,4.0,69,0.00,,---,0.00,VWS V14.01,2013-04-14 14:11:00,
2013-04-14 08:16:00,30.2,21.3,29.94,South,187,0.0,3.1,69,0.00,,---,0.00,VWS V14.01,2013-04-14 14:16:00,
2013-04-14 08:21:00,30.6,21.6,29.94,SW,234,0.0,3.1,69,0.00,,---,0.00,VWS V14.01,2013-04-14 14:21:00,
2013-04-14 08:26:00,31.1,22.1,29.94,SE,142,4.0,4.0,69,0.00,,---,0.00,VWS V14.01,2013-04-14 14:26:00,
2013-04-14 08:31:00,31.3,22.0,29.94,South,176,5.4,5.8,68,0.00,,---,0.00,VWS V14.01,2013-04-14 14:31:00,
2013-04-14 08:36:00,31.8,22.5,29.94,SE,135,4.9,5.8,68,0.00,,---,0.00,VWS V14.01,2013-04-14 14:36:00,
2013-04-14 08:41:00,32.2,22.8,29.94,SE,145,4.0,5.8,68,0.00,,---,0.00,VWS V14.01,2013-04-14 14:41:00,
2013-04-14 08:46:00,33.1,23.7,29.94,SE,142,5.8,5.8,68,0.00,,---,0.00,VWS V14.01,2013-04-14 14:46:00,
2013-04-14 08:51:00,33.6,24.2,29.94,SE,135,4.0,7.2,68,0.00,,---,0.00,VWS V14.01,2013-04-14 14:51:00,
2013-04-14 08:56:00,34.2,24.4,29.94,SSE,167,4.0,7.2,67,0.00,,---,0.00,VWS V14.01,2013-04-14 14:56:00,
2013-04-14 09:01:00,35.2,25.4,29.94,South,180,3.6,4.9,67,0.00,,---,0.00,VWS V14.01,2013-04-14 15:01:00,
2013-04-14 09:06:00,35.6,25.0,29.94,SSE,151,4.9,6.3,65,0.00,,---,0.00,VWS V14.01,2013-04-14 15:06:00,
2013-04-14 09:11:00,35.6,25.0,29.94,South,182,2.2,6.3,65,0.00,,---,0.00,VWS V14.01,2013-04-14 15:11:00,
2013-04-14 09:16:00,36.3,24.6,29.94,SW,215,3.6,5.8,62,0.00,,---,0.00,VWS V14.01,2013-04-14 15:16:00,
2013-04-14 09:21:00,36.3,23.0,29.94,South,173,2.7,8.7,58,0.00,,---,0.00,VWS V14.01,2013-04-14 15:21:00,
2013-04-14 09:26:00,37.6,23.3,29.94,SE,135,3.1,8.7,56,0.00,,---,0.00,VWS V14.01,2013-04-14 15:26:00,
2013-04-14 09:31:00,37.9,21.4,29.97,South,184,5.8,7.6,51,0.00,,---,0.00,VWS V14.01,2013-04-14 15:31:00,
2013-04-14 09:36:00,37.8,19.9,29.97,SE,143,6.3,10.1,48,0.00,,---,0.00,VWS V14.01,2013-04-14 15:36:00,
2013-04-14 09:41:00,37.9,20.5,29.97,SSE,154,4.0,10.1,49,0.00,,---,0.00,VWS V14.01,2013-04-14 15:41:00,
2013-04-14 09:46:00,38.8,21.3,29.97,SE,135,6.3,7.2,49,0.00,,---,0.00,VWS V14.01,2013-04-14 15:46:00,
2013-04-14 09:51:00,39.0,21.0,29.97,SSE,167,7.6,8.1,48,0.00,,---,0.00,VWS V14.01,2013-04-14 15:51:00,
2013-04-14 09:56:00,39.0,21.0,29.97,SE,140,6.7,8.7,48,0.00,,---,0.00,VWS V14.01,2013-04-14 15:56:00,
2013-04-14 10:01:00,39.0,21.0,29.97,SE,134,6.3,6.3,48,0.00,,---,0.00,VWS V14.01,2013-04-14 16:01:00,
2013-04-14 10:06:00,39.0,21.0,29.97,SSE,158,5.8,8.1,48,0.00,,---,0.00,VWS V14.01,2013-04-14 16:06:00,
2013-04-14 10:11:00,40.6,18.2,29.97,SE,133,7.6,8.7,40,0.00,,---,0.00,VWS V14.01,2013-04-14 16:11:00,
2013-04-14 10:16:00,39.7,17.4,29.97,South,172,4.0,5.8,40,0.00,,---,0.00,VWS V14.01,2013-04-14 16:16:00,
2013-04-14 10:21:00,39.4,17.1,29.97,South,178,8.3,10.5,40,0.00,,---,0.00,VWS V14.01,2013-04-14 16:21:00,
2013-04-14 10:26:00,39.7,17.4,29.97,SE,130,6.3,10.5,40,0.00,,---,0.00,VWS V14.01,2013-04-14 16:26:00,
2013-04-14 10:31:00,39.7,17.4,29.97,SSE,158,5.8,9.6,40,0.00,,---,0.00,VWS V14.01,2013-04-14 16:31:00,
2013-04-14 10:36:00,39.7,17.4,29.97,South,186,8.1,9.6,40,0.00,,---,0.00,VWS V14.01,2013-04-14 16:36:00,
2013-04-14 10:41:00,42.8,19.0,29.94,South,169,5.4,9.6,38,0.00,,---,0.00,VWS V14.01,2013-04-14 16:41:00,
2013-04-14 10:46:00,41.7,18.0,29.94,SE,125,5.8,10.1,38,0.00,,---,0.00,VWS V14.01,2013-04-14 16:46:00,
2013-04-14 10:51:00,40.8,17.8,29.94,SSE,154,6.7,10.1,39,0.00,,---,0.00,VWS V14.01,2013-04-14 16:51:00,
2013-04-14 10:56:00,41.5,18.4,29.97,SE,139,8.1,10.1,39,0.00,,---,0.00,VWS V14.01,2013-04-14 16:56:00,
2013-04-14 11:01:00,41.5,17.8,29.97,SE,131,5.8,8.7,38,0.00,,---,0.00,VWS V14.01,2013-04-14 17:01:00,
2013-04-14 11:07:00,41.7,18.0,29.97,SSE,163,5.8,10.1,38,0.00,,---,0.00,VWS V14.01,2013-04-14 17:07:00,
2013-04-14 11:12:00,42.1,18.3,29.97,South,176,8.1,10.1,38,0.00,,---,0.00,VWS V14.01,2013-04-14 17:12:00,
2013-04-14 11:17:00,42.3,18.5,29.97,ESE,107,5.8,9.2,38,0.00,,---,0.00,VWS V14.01,2013-04-14 17:17:00,
2013-04-14 11:22:00,42.3,18.5,29.97,South,171,6.3,10.1,38,0.00,,---,0.00,VWS V14.01,2013-04-14 17:22:00,
2013-04-14 11:27:00,42.1,18.3,29.97,SE,138,8.1,10.1,38,0.00,,---,0.00,VWS V14.01,2013-04-14 17:27:00,
2013-04-14 11:32:00,42.1,18.3,29.97,SE,126,5.8,7.6,38,0.00,,---,0.00,VWS V14.01,2013-04-14 17:32:00,
2013-04-14 11:37:00,43.0,19.1,29.97,SE,136,6.3,8.1,38,0.00,,---,0.00,VWS V14.01,2013-04-14 17:37:00,
2013-04-14 11:42:00,43.9,19.9,29.97,SE,130,5.4,8.7,38,0.00,,---,0.00,VWS V14.01,2013-04-14 17:42:00,
2013-04-14 11:47:00,43.9,18.7,29.97,SSW,205,6.3,11.0,36,0.00,,---,0.00,VWS V14.01,2013-04-14 17:47:00,
2013-04-14 11:52:00,44.2,18.3,29.97,SSE,153,5.8,11.0,35,0.00,,---,0.00,VWS V14.01,2013-04-14 17:52:00,
2013-04-14 11:57:00,44.4,17.1,29.97,SSE,167,6.3,11.0,33,0.00,,---,0.00,VWS V14.01,2013-04-14 17:57:00,
2013-04-14 12:02:00,44.1,16.8,29.97,SSW,212,3.6,5.8,33,0.00,,---,0.00,VWS V14.01,2013-04-14 18:02:00,
2013-04-14 12:07:00,43.7,16.5,29.97,ESE,117,5.8,8.7,33,0.00,,---,0.00,VWS V14.01,2013-04-14 18:07:00,
2013-04-14 12:12:00,44.8,18.1,29.94,South,171,5.8,8.7,34,0.00,,---,0.00,VWS V14.01,2013-04-14 18:12:00,
2013-04-14 12:17:00,45.5,16.6,29.94,SE,140,3.6,10.1,31,0.00,,---,0.00,VWS V14.01,2013-04-14 18:17:00,
2013-04-14 12:22:00,45.7,16.8,29.94,SSE,154,8.3,11.0,31,0.00,,---,0.00,VWS V14.01,2013-04-14 18:22:00,
2013-04-14 12:27:00,46.2,16.5,29.94,SSE,159,8.3,11.0,30,0.00,,---,0.00,VWS V14.01,2013-04-14 18:27:00,
2013-04-14 12:32:00,45.7,16.0,29.94,SSW,203,8.3,8.3,30,0.00,,---,0.00,VWS V14.01,2013-04-14 18:32:00,
2013-04-14 12:37:00,43.7,13.5,29.94,SSE,160,2.2,8.3,29,0.00,,---,0.00,VWS V14.01,2013-04-14 18:37:00,
2013-04-14 12:42:00,41.5,12.4,29.94,South,176,7.6,8.3,30,0.00,,---,0.00,VWS V14.01,2013-04-14 18:42:00,
2013-04-14 12:47:00,40.3,11.3,29.94,South,179,7.2,7.6,30,0.00,,---,0.00,VWS V14.01,2013-04-14 18:47:00,
2013-04-14 12:52:00,39.6,10.7,29.94,SSE,166,3.6,8.1,30,0.00,,---,0.00,VWS V14.01,2013-04-14 18:52:00,
2013-04-14 12:58:00,41.0,12.0,29.94,South,190,3.6,8.1,30,0.00,,---,0.00,VWS V14.01,2013-04-14 18:58:00,
2013-04-14 13:03:00,43.7,15.1,29.94,South,173,5.8,8.1,31,0.00,,---,0.00,VWS V14.01,2013-04-14 19:03:00,
2013-04-14 13:08:00,45.5,15.9,29.94,SSW,200,2.2,8.3,30,0.00,,---,0.00,VWS V14.01,2013-04-14 19:08:00,
2013-04-14 13:13:00,46.9,15.6,29.94,SW,214,4.9,8.3,28,0.00,,---,0.00,VWS V14.01,2013-04-14 19:13:00,
2013-04-14 13:18:00,47.1,15.7,29.94,SSE,160,5.8,8.1,28,0.00,,---,0.00,VWS V14.01,2013-04-14 19:18:00,
2013-04-14 13:23:00,45.3,14.1,29.94,SSW,200,0.0,8.1,28,0.00,,---,0.00,VWS V14.01,2013-04-14 19:23:00,
2013-04-14 13:28:00,43.7,12.8,29.94,WSW,251,2.2,8.1,28,0.00,,---,0.00,VWS V14.01,2013-04-14 19:28:00,
2013-04-14 13:33:00,42.4,12.4,29.94,South,187,5.8,6.3,29,0.00,,---,0.00,VWS V14.01,2013-04-14 19:33:00,
2013-04-14 13:38:00,41.5,11.7,29.94,SW,223,3.6,6.3,29,0.00,,---,0.00,VWS V14.01,2013-04-14 19:38:00,
2013-04-14 13:43:00,41.9,12.0,29.91,SSW,193,2.7,6.3,29,0.00,,---,0.00,VWS V14.01,2013-04-14 19:43:00,
2013-04-14 13:48:00,44.8,14.5,29.91,ESE,114,3.1,5.4,29,0.00,,---,0.00,VWS V14.01,2013-04-14 19:48:00,
2013-04-14 13:53:00,46.6,14.4,29.91,South,191,6.3,8.3,27,0.00,,---,0.00,VWS V14.01,2013-04-14 19:53:00,
2013-04-14 13:58:00,45.5,14.3,29.94,South,179,5.8,8.3,28,0.00,,---,0.00,VWS V14.01,2013-04-14 19:58:00,
2013-04-14 14:03:00,44.8,13.7,29.94,SSE,149,0.0,4.5,28,0.00,,---,0.00,VWS V14.01,2013-04-14 20:03:00,
2013-04-14 14:08:00,44.8,13.7,29.94,SSW,203,6.3,7.6,28,0.00,,---,0.00,VWS V14.01,2013-04-14 20:08:00,
2013-04-14 14:13:00,44.8,13.7,29.91,South,187,4.0,8.3,28,0.00,,---,0.00,VWS V14.01,2013-04-14 20:13:00,
2013-04-14 14:18:00,44.8,13.7,29.91,SSW,202,3.6,7.2,28,0.00,,---,0.00,VWS V14.01,2013-04-14 20:18:00,
2013-04-14 14:23:00,44.8,13.7,29.91,SSW,213,0.0,7.2,28,0.00,,---,0.00,VWS V14.01,2013-04-14 20:23:00,
2013-04-14 14:28:00,46.9,14.7,29.91,South,177,3.1,7.2,27,0.00,,---,0.00,VWS V14.01,2013-04-14 20:28:00,
2013-04-14 14:33:00,46.9,14.7,29.91,ESE,118,4.9,5.4,27,0.00,,---,0.00,VWS V14.01,2013-04-14 20:33:00,
2013-04-14 14:38:00,46.9,14.7,29.91,East,91,4.0,6.3,27,0.00,,---,0.00,VWS V14.01,2013-04-14 20:38:00,
2013-04-14 14:43:00,46.9,14.7,29.91,NNE,26,2.7,6.3,27,0.00,,---,0.00,VWS V14.01,2013-04-14 20:43:00,
2013-04-14 14:48:00,46.9,14.7,29.91,East,100,3.1,4.9,27,0.00,,---,0.00,VWS V14.01,2013-04-14 20:48:00,
2013-04-14 14:53:00,46.9,14.7,29.91,SW,227,5.4,5.4,27,0.00,,---,0.00,VWS V14.01,2013-04-14 20:53:00,
2013-04-14 14:58:00,46.9,14.7,29.91,NNW,343,2.7,5.4,27,0.00,,---,0.00,VWS V14.01,2013-04-14 20:58:00,
2013-04-14 15:03:00,46.9,14.7,29.91,NNW,327,3.1,4.0,27,0.00,,---,0.00,VWS V14.01,2013-04-14 21:03:00,
2013-04-14 15:08:00,46.9,14.7,29.91,NNW,332,3.1,7.2,27,0.00,,---,0.00,VWS V14.01,2013-04-14 21:08:00,
2013-04-14 15:13:00,46.9,14.7,29.91,NW,306,2.2,8.1,27,0.00,,---,0.00,VWS V14.01,2013-04-14 21:13:00,
2013-04-14 15:35:00,44.8,13.7,29.91,WNW,290,5.4,5.4,28,0.00,,---,0.00,VWS V14.01,2013-04-14 21:35:00,
2013-04-14 15:40:00,44.8,12.9,29.91,NW,325,4.0,7.6,27,0.00,,---,0.00,VWS V14.01,2013-04-14 21:40:00,
2013-04-14 15:45:00,43.7,12.8,29.91,NNW,343,0.0,7.6,28,0.00,,---,0.00,VWS V14.01,2013-04-14 21:45:00,
2013-04-14 15:50:00,42.8,12.0,29.91,WNW,299,3.1,5.8,28,0.00,,---,0.00,VWS V14.01,2013-04-14 21:50:00,
2013-04-14 15:55:00,43.0,12.1,29.91,North,0,4.0,6.3,28,0.00,,---,0.00,VWS V14.01,2013-04-14 21:55:00,
2013-04-14 16:00:00,42.6,11.8,29.91,NNW,334,3.1,3.1,28,0.00,,---,0.00,VWS V14.01,2013-04-14 22:00:00,
2013-04-14 16:05:00,42.1,11.3,29.91,North,0,2.2,5.8,28,0.00,,---,0.00,VWS V14.01,2013-04-14 22:05:00,
2013-04-14 16:10:00,41.7,11.0,29.91,NNE,16,2.2,5.8,28,0.00,,---,0.00,VWS V14.01,2013-04-14 22:10:00,
2013-04-14 16:15:00,41.5,10.9,29.91,North,357,5.4,5.4,28,0.00,,---,0.00,VWS V14.01,2013-04-14 22:15:00,
2013-04-14 16:20:00,41.7,11.8,29.91,NNE,14,5.8,7.6,29,0.00,,---,0.00,VWS V14.01,2013-04-14 22:20:00,
2013-04-14 16:25:00,40.5,13.6,29.91,North,353,5.8,8.7,33,0.00,,---,0.00,VWS V14.01,2013-04-14 22:25:00,
2013-04-14 16:30:00,40.6,14.5,29.91,North,7,5.8,5.8,34,0.00,,---,0.00,VWS V14.01,2013-04-14 22:30:00,
2013-04-14 16:35:00,40.6,15.8,29.91,North,9,11.0,11.0,36,0.00,,---,0.00,VWS V14.01,2013-04-14 22:35:00,
2013-04-14 16:40:00,40.5,15.6,29.91,North,349,6.3,12.8,36,0.00,,---,0.00,VWS V14.01,2013-04-14 22:40:00,
2013-04-14 16:45:00,40.3,14.2,29.91,WNW,301,3.1,5.4,34,0.00,,---,0.00,VWS V14.01,2013-04-14 22:45:00,
2013-04-14 16:50:00,40.5,13.6,29.91,North,357,7.6,8.3,33,0.00,,---,0.00,VWS V14.01,2013-04-14 22:50:00,
2013-04-14 16:55:00,41.2,14.3,29.91,NW,317,2.2,8.7,33,0.00,,---,0.00,VWS V14.01,2013-04-14 22:55:00,
2013-04-14 17:00:00,42.8,15.0,29.91,North,357,5.8,7.6,32,0.00,,---,0.00,VWS V14.01,2013-04-14 23:00:00,
2013-04-14 17:05:00,43.5,14.9,29.91,NNW,331,2.7,8.7,31,0.00,,---,0.00,VWS V14.01,2013-04-14 23:05:00,
2013-04-14 17:10:00,43.7,15.8,29.91,North,357,4.9,8.7,32,0.00,,---,0.00,VWS V14.01,2013-04-14 23:10:00,
2013-04-14 17:15:00,43.5,14.9,29.91,NNW,332,3.1,4.0,31,0.00,,---,0.00,VWS V14.01,2013-04-14 23:15:00,
2013-04-14 17:20:00,43.3,14.0,29.91,North,353,3.6,5.8,30,0.00,,---,0.00,VWS V14.01,2013-04-14 23:20:00,
2013-04-14 17:25:00,43.3,14.0,29.91,NNW,341,2.7,5.8,30,0.00,,---,0.00,VWS V14.01,2013-04-14 23:25:00,
2013-04-14 17:30:00,42.6,14.1,29.91,WNW,301,2.7,5.4,31,0.00,,---,0.00,VWS V14.01,2013-04-14 23:30:00,
2013-04-14 17:35:00,42.1,14.4,29.91,NNW,341,5.4,8.3,32,0.00,,---,0.00,VWS V14.01,2013-04-14 23:35:00,
2013-04-14 17:40:00,40.5,13.6,29.91,North,357,8.1,10.5,33,0.00,,---,0.00,VWS V14.01,2013-04-14 23:40:00,
2013-04-14 17:45:00,39.7,13.0,29.91,North,7,3.6,6.3,33,0.00,,---,0.00,VWS V14.01,2013-04-14 23:45:00,
2013-04-14 17:50:00,38.8,13.5,29.91,North,353,3.6,8.7,35,0.00,,---,0.00,VWS V14.01,2013-04-14 23:50:00,
2013-04-14 17:55:00,38.7,13.4,29.91,NNW,343,4.0,8.7,35,0.00,,---,0.00,VWS V14.01,2013-04-14 23:55:00,
2013-04-14 18:00:00,38.5,13.2,29.91,North,2,7.6,7.6,35,0.00,,---,0.00,VWS V14.01,2013-04-15 00:00:00,
2013-04-14 18:05:00,38.5,12.6,29.91,North,3,6.3,7.6,34,0.00,,---,0.00,VWS V14.01,2013-04-15 00:05:00,
2013-04-14 18:10:00,38.5,12.6,29.91,NNW,338,3.1,7.6,34,0.00,,---,0.00,VWS V14.01,2013-04-15 00:10:00,
2013-04-14 18:15:00,38.5,12.6,29.91,North,0,3.6,3.6,34,0.00,,---,0.00,VWS V14.01,2013-04-15 00:15:00,
2013-04-14 18:20:00,38.3,12.4,29.91,NNW,331,3.6,7.6,34,0.00,,---,0.00,VWS V14.01,2013-04-15 00:20:00,
2013-04-14 18:25:00,38.5,11.9,29.91,West,274,3.1,7.6,33,0.00,,---,0.00,VWS V14.01,2013-04-15 00:25:00,
2013-04-14 18:30:00,38.5,11.9,29.91,WNW,294,3.6,4.5,33,0.00,,---,0.00,VWS V14.01,2013-04-15 00:30:00,
2013-04-14 18:35:00,38.5,11.9,29.91,NE,36,5.8,6.3,33,0.00,,---,0.00,VWS V14.01,2013-04-15 00:35:00,
2013-04-14 18:40:00,38.5,11.9,29.91,North,2,4.0,8.3,33,0.00,,---,0.00,VWS V14.01,2013-04-15 00:40:00,
2013-04-14 18:45:00,38.5,11.9,29.91,North,0,5.4,5.4,33,0.00,,---,0.00,VWS V14.01,2013-04-15 00:45:00,
2013-04-14 18:50:00,38.5,11.9,29.91,North,0,2.7,6.3,33,0.00,,---,0.00,VWS V14.01,2013-04-15 00:50:00,
2013-04-14 18:55:00,38.3,11.7,29.91,NNW,337,5.4,6.3,33,0.00,,---,0.00,VWS V14.01,2013-04-15 00:55:00,
2013-04-14 19:00:00,38.3,11.7,29.91,NW,315,3.6,4.0,33,0.00,,---,0.00,VWS V14.01,2013-04-15 01:00:00,
2013-04-14 19:05:00,38.3,11.7,29.91,NNW,337,0.0,4.0,33,0.00,,---,0.00,VWS V14.01,2013-04-15 01:05:00,
2013-04-14 19:10:00,38.3,11.7,29.91,North,0,3.1,4.0,33,0.00,,---,0.00,VWS V14.01,2013-04-15 01:10:00,
2013-04-14 19:15:00,38.5,12.6,29.91,NNW,348,3.1,3.6,34,0.00,,---,0.00,VWS V14.01,2013-04-15 01:15:00,
2013-04-14 19:20:00,38.5,12.6,29.91,North,349,0.0,4.0,34,0.00,,---,0.00,VWS V14.01,2013-04-15 01:20:00,
2013-04-14 19:25:00,38.5,12.6,29.91,NW,318,0.0,4.0,34,0.00,,---,0.00,VWS V14.01,2013-04-15 01:25:00,
2013-04-14 19:30:00,38.5,12.6,29.91,WNW,303,0.0,0.0,34,0.00,,---,0.00,VWS V14.01,2013-04-15 01:30:00,
2013-04-14 19:35:00,37.8,11.9,29.91,North,353,0.0,0.0,34,0.00,,---,0.00,VWS V14.01,2013-04-15 01:35:00,
2013-04-14 19:40:00,37.6,11.8,29.91,NNW,337,5.8,5.8,34,0.00,,---,0.00,VWS V14.01,2013-04-15 01:40:00,
2013-04-14 19:45:00,37.6,11.8,29.91,North,357,2.2,2.2,34,0.00,,---,0.00,VWS V14.01,2013-04-15 01:45:00,
2013-04-14 19:50:00,37.6,11.8,29.91,North,353,3.6,3.6,34,0.00,,---,0.00,VWS V14.01,2013-04-15 01:50:00,
2013-04-14 19:55:00,37.6,11.8,29.91,North,357,4.0,8.1,34,0.00,,---,0.00,VWS V14.01,2013-04-15 01:55:00,
2013-04-14 20:00:00,37.6,11.8,29.91,NNW,348,2.2,3.1,34,0.00,,---,0.00,VWS V14.01,2013-04-15 02:00:00,
2013-04-14 20:05:00,37.6,11.8,29.91,NNW,335,2.7,5.8,34,0.00,,---,0.00,VWS V14.01,2013-04-15 02:05:00,
2013-04-14 20:10:00,37.6,11.8,29.91,North,0,3.6,5.8,34,0.00,,---,0.00,VWS V14.01,2013-04-15 02:10:00,
2013-04-14 20:15:00,37.6,11.8,29.91,North,10,2.7,4.0,34,0.00,,---,0.00,VWS V14.01,2013-04-15 02:15:00,
2013-04-14 20:20:00,37.6,11.8,29.91,NW,319,0.0,4.0,34,0.00,,---,0.00,VWS V14.01,2013-04-15 02:20:00,
2013-04-14 20:25:00,37.6,11.8,29.91,NW,311,0.0,4.0,34,0.00,,---,0.00,VWS V14.01,2013-04-15 02:25:00,
2013-04-14 20:30:00,34.9,12.4,29.91,NW,314,0.0,0.0,39,0.00,,---,0.00,VWS V14.01,2013-04-15 02:30:00,
2013-04-14 20:35:00,34.5,12.7,29.91,WNW,298,0.0,0.0,40,0.00,,---,0.00,VWS V14.01,2013-04-15 02:35:00,
2013-04-14 20:40:00,34.5,12.7,29.91,WNW,289,2.2,3.6,40,0.00,,---,0.00,VWS V14.01,2013-04-15 02:40:00,
2013-04-14 20:45:00,34.2,12.4,29.91,WNW,290,0.0,0.0,40,0.00,,---,0.00,VWS V14.01,2013-04-15 02:45:00,
2013-04-14 20:50:00,34.0,12.2,29.91,WNW,292,0.0,0.0,40,0.00,,---,0.00,VWS V14.01,2013-04-15 02:50:00,
2013-04-14 20:55:00,34.0,12.2,29.91,WNW,289,0.0,0.0,40,0.00,,---,0.00,VWS V14.01,2013-04-15 02:55:00,
2013-04-14 21:00:00,33.8,12.1,29.91,WNW,289,0.0,0.0,40,0.00,,---,0.00,VWS V14.01,2013-04-15 03:00:00,
2013-04-14 21:05:00,33.4,11.7,29.91,WNW,289,0.0,0.0,40,0.00,,---,0.00,VWS V14.01,2013-04-15 03:05:00,
2013-04-14 21:10:00,33.1,11.4,29.91,WNW,289,0.0,0.0,40,0.00,,---,0.00,VWS V14.01,2013-04-15 03:10:00,
2013-04-14 21:15:00,33.1,12.0,29.94,WNW,289,0.0,0.0,41,0.00,,---,0.00,VWS V14.01,2013-04-15 03:15:00,
2013-04-14 21:20:00,32.9,11.8,29.94,WNW,289,0.0,0.0,41,0.00,,---,0.00,VWS V14.01,2013-04-15 03:20:00,
2013-04-14 21:25:00,32.7,11.6,29.94,WNW,294,0.0,0.0,41,0.00,,---,0.00,VWS V14.01,2013-04-15 03:25:00,
2013-04-14 21:30:00,32.5,11.5,29.94,WNW,293,0.0,0.0,41,0.00,,---,0.00,VWS V14.01,2013-04-15 03:30:00,
2013-04-14 21:35:00,32.5,12.0,29.94,WNW,293,0.0,0.0,42,0.00,,---,0.00,VWS V14.01,2013-04-15 03:35:00,
2013-04-14 21:40:00,32.5,12.0,29.94,WNW,286,0.0,0.0,42,0.00,,---,0.00,VWS V14.01,2013-04-15 03:40:00,
2013-04-14 21:45:00,32.7,12.7,29.94,WNW,287,0.0,0.0,43,0.00,,---,0.00,VWS V14.01,2013-04-15 03:45:00,
2013-04-14 21:50:00,33.1,13.0,29.94,NW,307,2.2,3.1,43,0.00,,---,0.00,VWS V14.01,2013-04-15 03:50:00,
2013-04-14 21:56:00,33.1,13.0,29.94,WNW,294,0.0,4.0,43,0.00,,---,0.00,VWS V14.01,2013-04-15 03:56:00,
2013-04-14 22:00:00,32.9,12.9,29.94,WNW,287,0.0,4.0,43,0.00,,---,0.00,VWS V14.01,2013-04-15 04:00:00,
2013-04-14 22:05:00,33.1,13.0,29.94,WNW,287,2.7,4.0,43,0.00,,---,0.00,VWS V14.01,2013-04-15 04:05:00,
2013-04-14 22:10:00,33.6,13.5,29.94,WNW,292,2.7,5.4,43,0.00,,---,0.00,VWS V14.01,2013-04-15 04:10:00,
2013-04-14 22:15:00,34.2,13.5,29.94,NNW,334,2.2,3.6,42,0.00,,---,0.00,VWS V14.01,2013-04-15 04:15:00,
2013-04-14 22:20:00,34.5,13.3,29.94,NNW,330,2.7,5.4,41,0.00,,---,0.00,VWS V14.01,2013-04-15 04:20:00,
2013-04-14 22:25:00,34.9,13.6,29.94,NW,311,4.0,7.2,41,0.00,,---,0.00,VWS V14.01,2013-04-15 04:25:00,
2013-04-14 22:30:00,35.1,13.8,29.94,NNW,335,2.2,2.2,41,0.00,,---,0.00,VWS V14.01,2013-04-15 04:30:00,
2013-04-14 22:35:00,35.1,13.8,29.94,NNW,330,3.6,4.0,41,0.00,,---,0.00,VWS V14.01,2013-04-15 04:35:00,
2013-04-14 22:40:00,35.1,13.8,29.94,NW,304,6.3,6.3,41,0.00,,---,0.00,VWS V14.01,2013-04-15 04:40:00,
2013-04-14 22:45:00,35.2,13.9,29.94,NNW,340,3.6,3.6,41,0.00,,---,0.00,VWS V14.01,2013-04-15 04:45:00,
2013-04-14 22:50:00,35.2,13.9,29.94,NW,323,4.0,7.2,41,0.00,,---,0.00,VWS V14.01,2013-04-15 04:50:00,
2013-04-14 22:55:00,35.2,13.9,29.94,NW,321,4.0,7.2,41,0.00,,---,0.00,VWS V14.01,2013-04-15 04:55:00,
2013-04-14 23:00:00,35.2,13.9,29.94,North,8,2.7,5.4,41,0.00,,---,0.00,VWS V14.01,2013-04-15 05:00:00,
2013-04-14 23:05:00,35.1,13.8,29.94,NNW,328,2.7,6.3,41,0.00,,---,0.00,VWS V14.01,2013-04-15 05:05:00,
2013-04-14 23:10:00,35.1,13.8,29.94,North,353,3.6,6.3,41,0.00,,---,0.00,VWS V14.01,2013-04-15 05:10:00,
2013-04-14 23:15:00,34.7,14.0,29.94,NNW,339,2.2,6.3,42,0.00,,---,0.00,VWS V14.01,2013-04-15 05:15:00,
2013-04-14 23:20:00,34.5,13.8,29.94,WNW,289,3.6,6.3,42,0.00,,---,0.00,VWS V14.01,2013-04-15 05:20:00,
2013-04-14 23:25:00,34.3,13.6,29.94,NNW,332,2.7,6.3,42,0.00,,---,0.00,VWS V14.01,2013-04-15 05:25:00,
2013-04-14 23:30:00,34.3,13.1,29.94,NNW,333,2.7,7.6,41,0.00,,---,0.00,VWS V14.01,2013-04-15 05:30:00,
2013-04-14 23:35:00,34.2,12.9,29.94,NNW,335,3.6,7.6,41,0.00,,---,0.00,VWS V14.01,2013-04-15 05:35:00,
2013-04-14 23:40:00,34.0,12.8,29.94,NNW,335,3.1,7.6,41,0.00,,---,0.00,VWS V14.01,2013-04-15 05:40:00,
2013-04-14 23:45:00,34.0,12.8,29.94,NW,314,3.1,3.6,41,0.00,,---,0.00,VWS V14.01,2013-04-15 05:45:00,
2013-04-14 23:50:00,33.8,12.1,29.94,WNW,302,3.1,8.7,40,0.00,,---,0.00,VWS V14.01,2013-04-15 05:50:00,
2013-04-14 23:55:00,33.1,12.5,29.94,NNW,332,3.1,8.7,42,0.00,,---,0.00,VWS V14.01,2013-04-15 05:55:00,